Погода в Шахрисабзе

Узбекистан     39°03′36″N   66°49′45″E
темп.,
°C
ветер,
м/с
пор.,
м/с
влажн.,
%
обл.,
%
осадки,
мм/ч
давл.,
гПа
погр.,
м
1 марта, пн
пн123:00+7в124317 0.0 102023
02:00+6в223785 0.0 101922
05:00+7в343044 0.0 101936
08:00+8вюв23290 0.0 101940
11:00+17ююз38170 0.0 10191798
14:00+20юз710150 0.0 10183089
17:00+18зюз68170 0.0 1017953
20:00+12ююв11310 0.0 102022
2 марта, вт
вт223:00+11в233333 0.0 102132
02:00+10в333149 0.0 102140
05:00+10всв232974 0.0 102029
08:00+11всв1231100 0.0 102124
11:00+16ссв1222100 0.0 1021342
14:00+17з4520100 0.0 10201190
17:00+15зсз5527100 0.0 10201076
20:00+12ссз1239100 0.0 102242
3 марта, ср
ср323:00+10сз014798 0.0 102323
02:00+9вюв225495 0.0 102325
05:00+9юв236996 0.0 102245
08:00+9вюв237277 0.0 102383
11:00+14зюз344873 0.0 10221179
14:00+15зюз673971 0.0 10191813
17:00+14юз344385 0.1 10191496
20:00+10всв236647 0.1 101958
4 марта, чт
чт423:00+9всв226524 0.1 101926
02:00+9всв12610 0.0 101722
05:00+9всв225512 0.1 101723
08:00+10всв3349100 0.0 101761
11:00+16зсз443690 0.0 1017868
14:00+15з775095 0.3 10171414
17:00+12всв567296 1.3 1017224
20:00+10всв237321 0.6 101945
5 марта, пт
пт523:00+10вюв346944 1.4 102266
02:00+8зюз587033 0.2 1023258
05:00+5з349267 3.1 1026294
08:00+6в3489100 7.0 1027264
11:00+11всв3358100 7.5 1026431
14:00+15зсз334714 0.0 1022975
17:00+14ссз225039 0.0 1019850
20:00+11св236790 0.0 101871